Regional Weather Roundup
Issued by NWS Wakefield, VA

Home | Current Version | Previous Version | Graphics & Text | Print | Product List | Glossary On
Versions: 1 2 3 4 5 6 7 8 9 10 11 12 13 14 15 16 17 18 19 20 21 22 23 24 25 26 27 28 29 30 31 32 33 34 35 36 37 38 39 40 41 42 43 44 45 46 47 48 49 50
000
ASUS41 KAKQ 250915
RWRAKQ

REGIONAL WEATHER ROUNDUP
NATIONAL WEATHER SERVICE WAKEFIELD VA
500 AM EDT WED APR 25 2018

Note: "fair" indicates few or no clouds below 12,000 feet with no
significant weather and/or obstructions to visibility. * = Denotes
station may not report precipitation (e.g., rain,snow,etc.),
thunder or fog.

VAZ042-051-052>054-056-251000-
NORTHERN VIRGINIA

CITY           SKY/WX    TMP DP  RH WIND       PRES   REMARKS
WASH NATIONAL  LGT RAIN  57  54  89 N8        29.82F FOG
DULLES         LGT RAIN  53  53 100 N7        29.82F FOG
FORT BELVOIR   CLOUDY    55  55 100 CALM      29.80F
QUANTICO       CLOUDY    57  57 100 NE8       29.80F
FREDERICKSBRG* CLOUDY    55  55 100 N5        29.78F FOG
STAFFORD*      LGT RAIN  55  55 100 N6        29.83F
WARRENTON      CLOUDY    54  51  89 N6        29.81F FOG
CULPEPER*      DRIZZLE   54  52  95 N7        29.82F
MANASSAS*      LGT RAIN  54  53  97 N7        29.82F FOG
LEESBURG*      CLOUDY    50  50 100 NE6       29.84F FOG
WINCHESTER     CLOUDY    50  48  93 N3        29.85F
FRONT ROYAL*   CLOUDY    50  50 100 CALM      29.83F
LURAY*         CLOUDY    52  50  93 NE5       29.83F
$$

VAZ048-049-060>072-079>083-251000-
CENTRAL AND SOUTH CENTRAL VIRGINIA

CITY           SKY/WX    TMP DP  RH WIND       PRES   REMARKS
RICHMOND       CLOUDY    60  60 100 NE7       29.75F
CHESTERFIELD*  CLOUDY    61  59  94 NE3       29.75F FOG
PETERSBURG*    LGT RAIN  60  59  95 NE5       29.75F
HANOVER        CLOUDY    57  57 100 N3        29.78F FOG
TAPPAHANNOCK*  LGT RAIN  59  59 100 E7        29.79S
QUINTON*       CLOUDY    58  58 100 E6        29.76F FOG
CHARLOTTSVILLE CLOUDY    55  52  89 NE8       29.79F
GORDONSVILLE*  CLOUDY    52  52 100 N8        29.79F
ORANGE*        CLOUDY    52  50  93 N7        29.80F
LOUISA*        DRIZZLE   52  52  98 N8        29.83F FOG
BUMPASS*       NOT AVBL
FARMVILLE*     CLOUDY   N/A N/A N/A N8        29.76S HAZE
CREWE*         CLOUDY    56  56 100 NW3       29.75F VSB 1
FORT PICKETT*  CLOUDY    59  59 100 NW6       29.74F VSB 1/4
CHASE CITY*    CLOUDY    59  59 100 N6        29.74F VSB 3/4
CLARKSVILLE*   CLOUDY    61  61 100 CALM      29.72F
SOUTH HILL*    CLOUDY    60  60 100 CALM      29.78F VSB 1/4
LAWRENCEVILLE* CLOUDY    62  61  97 CALM      29.73F
EMPORIA*       MOCLDY    61  61 100 SE3       29.74F
$$

VAZ088>098-251000-
SOUTHEAST VIRGINIA

CITY           SKY/WX    TMP DP  RH WIND       PRES   REMARKS
NORFOLK        FOG       59  58  96 E5        29.74F VSB 1/2
VIRGINIA BEACH FOG       56  56 100 E7        29.75F VSB 1/2
NORFOLK NAVAL  FOG       57  55  93 E5        29.76F VSB 1/2
WEST POINT*    CLOUDY    58  57  96 E5        29.77F
SALUDA*        CLOUDY    57  57 100 E5        29.77F VSB 1/4
NEWPORT NEWS   CLOUDY    57  56  96 E7        29.76F
LANGLEY AFB    FOG       57  57 100 NE7       29.76F VSB 1/2
FORT EUSTIS    CLOUDY    58  57  97 E6        29.73F
WILLIAMSBURG*  CLOUDY    59  59 100 CALM      29.75F
HR EXEC AP*    FOG       58  58 100 E6        29.76S VSB 3/4
FRANKLIN*      CLOUDY    59  58  98 CALM      29.74F FOG
US460-WAKEFLD  CLOUDY    61  61 100 CALM      29.74F FOG
$$

VAZ020-022-025-037-045-251000-
WEST CENTRAL AND SOUTHWEST VIRGINIA

CITY           SKY/WX    TMP DP  RH WIND       PRES   REMARKS
STAUNTON*      CLOUDY    49  49  98 N9        29.84S
WAYNESBORO*    CLOUDY    49  49 100 N7        29.82F
HOT SPRINGS VA RAIN      38  38 100 E8        29.81F VSB 1/4
LYNCHBURG      CLOUDY    52  51  97 NE12      29.77S
DANVILLE       CLOUDY    54  54 100 N8        29.74S
SOUTH BOSTON*  CLOUDY    58  56  95 NE5       29.74S
MARTINSVILLE   CLOUDY    53  52  97 N5        29.77F FOG
ROANOKE        LGT RAIN  53  51  93 NE8       29.80F
BLACKSBURG     DRIZZLE   51  51 100 CALM      29.82S
DUBLIN*        DRIZZLE   53  52  99 CALM      29.81S
MARION*        CLOUDY    53  52  99 CALM      29.83S
HILLSVILLE*    RAIN      49  48  96 N12       29.77F
RICHLANDS*     HAZE      51  28  41 NW5       29.83S VSB 1/4
WISE*          CLOUDY    50  50 100 W8        29.85S FOG
ABINGDON*      CLOUDY    55  53  94 N6        29.82S
$$

MDZ021>025-VAZ099-100-251000-
SOUTHERN MARYLAND AND THE DELMARVA PENINSULA

CITY           SKY/WX    TMP DP  RH WIND       PRES   REMARKS
PATUXENT RIVER CLOUDY    59  56  89 E8        29.80F FOG
BAY BRIDGE APT HVY RAIN  57  57 100 E8        29.82F FOG
LEONARDTOWN    CLOUDY    57  55  94 E7        29.81F
DOVER          CLOUDY    54  54  98 E7        29.85F FOG
GEORGETOWN     CLOUDY    57  56  96 SE8       29.84F FOG
EASTON         LGT RAIN  59  57  94 SE7       29.86F
CAMBRIDGE      CLOUDY    59  59 100 E8        29.81F
SALISBURY      LGT RAIN  58  58 100 E14       29.80F
TANGIER        CLOUDY    57  57 100 E7        29.78F
OCEAN CITY     LGT RAIN  53  53 100 E6        29.81F FOG
WALLOPS ISLAND CLOUDY    58  57  97 NE9       29.78F
ACCOMACK*      CLOUDY    58  57  99 E13       29.76F FOG
$$

NCZ012>017-030>032-251000-
NORTH CENTRAL AND EASTERN NORTH CAROLINA

CITY           SKY/WX    TMP DP  RH WIND       PRES   REMARKS
ROANOKE RAPIDS FAIR      61  61 100 CALM      29.72F FOG
RALEIGH        MOCLDY    60  60 100 S3        29.73F
ELIZABETH CITY FAIR      62  62 100 SE7       29.75F
AHOSKIE*       FOG       59  59 100 CALM      29.73F VSB 1/4
EDENTON*       NOT AVBL
CURRITUCK*     NOT AVBL
KILL DEVIL HLS FAIR      61  61 100 CALM      29.75S
MANTEO         FAIR      60  59  97 SW7       29.77S
CAPE HATTERAS  FAIR      66  63  90 SW12      29.78F
TARBORO*       NOT AVBL
GOLDSBORO      FAIR      60  59  96 SE3       29.72F FOG
WASHINGTON     FAIR      61  59  94 CALM      29.75S
GREENVILLE     MOCLDY    61  61 100 S3        29.77F
NEW BERN       FAIR      59  59 100 S5        29.76F FOG
WILMINGTON     FAIR      60  58  92 SW7       29.77R
$$

VAZ048-251000-
ELSEWHERE

CITY           SKY/WX    TMP DP  RH WIND       PRES   REMARKS
HARRISBURG PA  LGT RAIN  53  51  93 CALM      29.87F
BALTIMORE      LGT RAIN  56  56 100 NE7       29.82F FOG
ANNAPOLIS      RAIN      59  59 100 NE3       29.81F FOG
ANDREWS AFB    DRIZZLE   55  55 100 NE7       29.80F FOG
PHILADELPHIA   CLOUDY    55  54  96 E12       29.89F FOG
HENDERSON NC   CLOUDY    58  57  97 CALM      29.72F
GREENSBORO     CLOUDY    55  55 100 N7        29.72S FOG
ROCKY MOUNT    CLOUDY    61  60  97 S5        29.73F FOG
$$

VAZ100-251000-
MARINE

STATION/POSITION TIME  TEMP    WIND        PRES    WAVE   SWELL
                       AIR SEA DIR/SP/G            HT/PER HT/PER
                 (UTC) (F)     (DEG/KT/KT) (MB)    (FT/S) (FT/S)
BRANDYWINE LGT   0842   55     130/ 23/ 27 1011.1F
CAPE MAY NJ      0848   54 52  110/ 13/ 16 1010.5F
LEWES DE         0848          130/ 11/ 15   N/A
15NM E FENWICK I 0850   51 47  100/ 19/ 23 1009.8F   8/10   7/10
OCEAN-CITY-INLET 0848   53 51  110/  8/ 13 1009.9F
WACHAPREAGUE VA  0848   56 55   40/  9/ 11 1008.0F
THOMAS POINT MD  0900   57 53  100/ 10/ 10 1010.5F
GOOSES REEF MD   0900   57     150/ 10/ 12 1009.9
COVE POINT MD    0848   58     140/ 10/ 13 1009.9F
SOLOMONS ISLAND  0848   56 53   80/  7/  8 1008.8F
BISHOPS HEAD MD  0848   59 56  100/ 10/ 12 1009.3F
PINEY POINT MD   0848          120/ 11/ 12   N/A
POTOMAC MD       0900   55 53  110/  8/  8 1009.8    1/ 3
CAMBRIDGE MD     0848   59 55              1010.6F
LEWISETTA VA     0848   55 56  110/  9/ 11 1008.6F
RAPPAHANNOCK LGT 0848           70/ 11/ 13 1008.4F
YORK RVR RNG VA  0848   56      60/  8/  9 1008.4F
YORKTOWN VA      0848   56 56   70/  8/  9 1007.3F
DOMINION TERM VA 0848   56      30/  1/  3 1007.6F
KIPTOPEKE VA     0848           80/ 10/ 14   N/A
CAPE HENRY VA    0848   56     110/  6/  7   N/A
WILLOUBY STN VA  0848   55      70/  7/  8 1007.5F
S CRANEY ISL VA  0848   58     100/  6/  6 1007.2F
CAPE HENRY BUOY  0900      51                N/A     7/11   3/11
64NM E OF VA BCH 0850   56 50  150/  8/ 12 1008.9F  13/10  13/10
DUCK PIER NC     0848   55 50  130/  7/  8 1007.4F
44100 DUCK FRF   0845      52                N/A     9/11   5/11
44056 DUCK FRF   0900      51                N/A     7/11   3/11
OREGON INLET NC  0842   60 54  210/  8/  9 1007.5F
HATTERAS NC      0848          190/  4/  6   N/A
DIAMOND SHLS NC  0900   69 70  220/ 12/ 16 1008.9
CAPE LOOKOUT NC  0900          210/  9/ 12 1008.7R
$$



USA.gov is the U.S. government's official web portal to all federal, state and local government web resources and services.